STARLINK-11478, 62557

Orbit data source: Space-Track

STARLINK-11478, 62557 is a payload satellite owned by SpaceX/Seattle (US) in LEO that was launched on Fri, 10 Jan 2025 UTC via an FALCON 9 launch vehicle from the Air Force Eastern Test Range (AFETR). Payload-class satellites include a variety of spacecraft equipped with specific instruments for various scientific and technological missions. These include communications satellites like Starlink; space stations such as the ISS; scientific satellites like the Hubble; Earth observation satellites from companies like Planet Labs, Umbra, and HawkEye 360; GPS; miniature CubeSats for education and research; and military/defense satellites.

Loading next visibility...
Identifier
62557, 2025-006D
Orbit
LEO
Country
Flag of USUS
Related business
Manufacturer
SpaceX/Seattle
Mission
Operational Commercial Communications
Bus & Motor
STARLINK V2MD, Unknown motor
Mass
960 kg wet, ~910 kg dry
Launch date (UTC)
2025-01-10 (1 year ago)
Launch vehicle
FALCON 9
Launch site
Air Force Eastern Test Range (AFETR)
Object type
Payload
Rocket body
Debris
Shape & HBR
Box + 2 Pan, 18.1 m
Radar Cross Section
36.964 m², Large (>1 m²)

Expand to show TLE details & history
Last TLE update: 1 day ago

TLE from 1 day ago
0 STARLINK-11478
1 62557U 25006D   26170.55871790  .00140556  00000-0  10771-2 0  9995
2 62557  42.9994 245.8739 0002091 268.7909  91.2720 15.70913895 82622
Epoch: 2026-06-19T13:24Z
TLE epoch observation values (Epoch: 2026-06-19T13:24:33.226Z)
Latitude
0.00004°
Longitude
136.94954°
Altitude
356.086 km
Speed
7.697 km/s
True Right ascension
16h 23m 29s
True Declination
0° 00' 00"
Sunlit
Object was in full shadow at epoch
Visualization orbit readout
Latitude
Unknown
Longitude
Unknown
Altitude
Unknown
Speed
Unknown
Apparent Right ascension
Unknown
Apparent Declination
Unknown
Sunlit
N/A
Visualization observer readout
Local Sidereal Time
08:41:40
Azimuth
Unknown
Elevation
Unknown
Doppler factor
Unknown
Orbital elements
Apogee altitude
359.674 km
Perigee altitude
356.857 km
Semi-major axis
6,736.403 km
Eccentricity
0.00021
Inclination
42.9994°
RAAN
245.8739°
Arg. of periapsis
268.7909°
True anomaly
91.29596°
Mean anomaly
91.272°
Eccentric anomaly
91.28398°
Mean motion
3.92556 °/min
Orbital period
91.71 mins
BSTAR
0.0010771
Loading maneuver chart data...
Computing Atmospheric mass density...
Loading historical data...
Loading historical data...
Loading historical data...
Loading historical data...
Loading historical data...
Loading historical data...
Loading historical data...

Documentation

Showing up to 5 results
|